Regional Weather Roundup
Issued by NWS Little Rock, AR

Home | Current Version | Previous Version | Text Only | Print | Product List | Glossary On
Versions: 1 2 3 4 5 6 7 8 9 10 11 12 13 14 15 16 17 18 19 20 21 22 23 24 25 26 27
000
ASUS44 KLZK 171605
RWRLZK

WEATHER ROUNDUP FOR ARKANSAS
NATIONAL WEATHER SERVICE LITTLE ROCK AR
1100 AM CDT THU APR 17 2014

NOTE: "FAIR" INDICATES FEW OR NO CLOUDS BELOW 12,000 FEET WITH NO
SIGNIFICANT WEATHER AND/OR OBSTRUCTIONS TO VISIBILITY.

ARZ001-003-010-029-171700-
NORTHWEST ARKANSAS

CITY           SKY/WX    TMP DP  RH WIND       PRES   REMARKS
FAYETTEVILLE   MOSUNNY   60  37  42 S3        30.24R
FORT SMITH     MOSUNNY   62  42  47 E7        30.25R
HARRISON       SUNNY     60  36  40 E3        30.24S
BENTONVILLE    MOSUNNY   59  36  41 W6        30.25R
ROGERS         SUNNY     60  36  40 SW9       30.25R
SILOAM SPGS    MOSUNNY   61  37  41 W6        30.25R
HIGHFILL       SUNNY     58  36  43 VRB5      30.23R
SPRINGDALE     PTSUNNY   59  36  41 SE7       30.25R
$$

ARZ004-005-016-171700-
NORTH CENTRAL ARKANSAS

CITY           SKY/WX    TMP DP  RH WIND       PRES   REMARKS
BATESVILLE     SUNNY     61  37  41 SW3       30.27F
FLIPPIN        SUNNY     57  36  44 CALM      30.26S
MTN HOME       SUNNY     60  35  39 S3        30.25S
$$

ARZ040-041-171700-
WEST CENTRAL ARKANSAS

CITY           SKY/WX    TMP DP  RH WIND       PRES   REMARKS
MENA           SUNNY     61  41  48 CALM      30.23S
MOUNT IDA      SUNNY     60  41  49 VRB3      30.22R
$$

ARZ009-017-025-026-028-171700-
NORTHEAST ARKANSAS

CITY           SKY/WX    TMP DP  RH WIND       PRES   REMARKS
CORNING          N/A     59  39  47 S3        30.31R
JONESBORO      SUNNY     58  42  55 SE6       30.29S
NEWPORT        SUNNY     59  39  47 E9        30.30S
WALNUT RIDGE   SUNNY     59  39  47 S3        30.30S
BLYTHEVILLE    SUNNY     61  42  49 S10       30.31R
NW BLYTHEVILLE SUNNY     64  45  48 S9        30.31R
$$

ARZ022-023-033-042-044-171700-
CENTRAL ARKANSAS

CITY           SKY/WX    TMP DP  RH WIND       PRES   REMARKS
LITTLE ROCK    MOSUNNY   62  38  40 VRB6      30.27S
N LITTLE ROCK  MOSUNNY   63  41  44 SE6       30.27S
JACKSONVILLE   SUNNY     62  41  45 VRB3      30.27S
SEARCY         SUNNY     62  41  46 VRB6      30.29S
HOT SPRINGS    SUNNY     62  37  39 CALM      30.25S
RUSSELLVILLE   SUNNY     59  39  47 S6        30.26R
CLINTON        FAIR      61  39  44 S5        30.27S
$$

ARZ036-171700-
EAST ARKANSAS

CITY           SKY/WX    TMP DP  RH WIND       PRES   REMARKS
WEST MEMPHIS   SUNNY     62  46  55 S13       30.29S
$$

ARZ050-053-066-070-073-171700-
SOUTHWEST ARKANSAS

CITY           SKY/WX    TMP DP  RH WIND       PRES   REMARKS
ARKADELPHIA    FAIR      61  43  51 CALM      30.25S
CAMDEN         PTSUNNY   64  37  36 MISG      30.24S
TEXARKANA      PTSUNNY   59  43  55 VRB6      30.22R
EL DORADO      CLOUDY    61  43  51 VRB5      30.23S
DE QUEEN       SUNNY     61  45  55 NE5       30.21S
$$

ARZ056-057-069-171700-
SOUTHEAST ARKANSAS

CITY           SKY/WX    TMP DP  RH WIND       PRES   REMARKS
PINE BLUFF     MOSUNNY   62  42  47 E3        30.26S
STUTTGART      MOSUNNY   61  43  51 SE3       30.27F
MONTICELLO     MOSUNNY   63  44  50 CALM      30.24S

$$





USA.gov is the U.S. government's official web portal to all federal, state and local government web resources and services.